TimeCST,TemperatureF,Dew PointF,Humidity,Sea Level PressureIn,VisibilityMPH,Wind Direction,Wind SpeedMPH,Gust SpeedMPH,PrecipitationIn,Events,Conditions,WindDirDegrees,DateUTC
12:53 AM,30.0,19.9,66,30.27,10.0,North,4.6,-,N/A,,Clear,360,2013-01-21 06:53:00
1:53 AM,30.0,18.0,61,30.29,10.0,North,8.1,-,N/A,,Clear,350,2013-01-21 07:53:00
2:53 AM,28.9,17.1,61,30.31,10.0,NNW,5.8,-,N/A,,Clear,340,2013-01-21 08:53:00
3:53 AM,28.9,17.1,61,30.31,10.0,North,5.8,-,N/A,,Clear,350,2013-01-21 09:53:00
4:53 AM,27.0,17.1,66,30.33,10.0,NNW,3.5,-,N/A,,Clear,340,2013-01-21 10:53:00
5:53 AM,27.0,16.0,63,30.35,10.0,North,4.6,-,N/A,,Clear,350,2013-01-21 11:53:00
6:53 AM,27.0,15.1,61,30.37,10.0,North,6.9,-,N/A,,Clear,350,2013-01-21 12:53:00
7:53 AM,27.0,14.0,58,30.38,10.0,North,9.2,-,N/A,,Clear,360,2013-01-21 13:53:00
8:53 AM,28.0,12.0,51,30.39,10.0,North,9.2,-,N/A,,Clear,10,2013-01-21 14:53:00
9:53 AM,30.0,10.9,45,30.40,10.0,NNW,10.4,-,N/A,,Clear,340,2013-01-21 15:53:00
10:53 AM,33.1,12.9,43,30.39,10.0,NW,8.1,-,N/A,,Clear,310,2013-01-21 16:53:00
11:53 AM,35.1,14.0,42,30.36,10.0,NW,10.4,17.3,N/A,,Clear,320,2013-01-21 17:53:00
12:53 PM,37.0,12.9,37,30.32,10.0,WNW,11.5,17.3,N/A,,Clear,300,2013-01-21 18:53:00
1:53 PM,39.0,14.0,36,30.31,10.0,NW,11.5,-,N/A,,Clear,310,2013-01-21 19:53:00
2:53 PM,41.0,15.1,35,30.30,10.0,NW,18.4,24.2,N/A,,Clear,310,2013-01-21 20:53:00
3:53 PM,41.0,15.1,35,30.31,10.0,NW,13.8,-,N/A,,Clear,320,2013-01-21 21:53:00
4:53 PM,37.9,16.0,41,30.32,10.0,NNW,11.5,-,N/A,,Clear,330,2013-01-21 22:53:00
5:53 PM,35.1,15.1,44,30.33,10.0,NNW,8.1,-,N/A,,Clear,340,2013-01-21 23:53:00
6:53 PM,33.1,15.1,48,30.34,10.0,NNW,6.9,-,N/A,,Scattered Clouds,340,2013-01-22 00:53:00
7:53 PM,30.9,14.0,50,30.35,10.0,NNW,8.1,-,N/A,,Partly Cloudy,340,2013-01-22 01:53:00
8:53 PM,30.0,12.0,47,30.36,10.0,NNW,6.9,-,N/A,,Clear,330,2013-01-22 02:53:00
9:53 PM,28.0,12.0,51,30.37,10.0,NNW,6.9,-,N/A,,Clear,330,2013-01-22 03:53:00
10:53 PM,30.0,10.9,45,30.38,10.0,NNW,5.8,-,N/A,,Clear,330,2013-01-22 04:53:00
11:53 PM,28.9,12.0,49,30.38,10.0,NE,8.1,-,N/A,,Partly Cloudy,40,2013-01-22 05:53:00